Simultaneous Nadir Overpasses (SNOs) Predictions

Prediction of SNOs between NPP and METOP-C Satellite Orbit:

Table of predicted SNOs for the next 14.0 days since TLE Epoch: 10/28/2023
Index Date (NPP) Time (NPP) Lat,Lon (NPP) SZA (NPP ) Date (METOP-C) Time (METOP-C) Lat,Lon (METOP-C) SZA (METOP-C ) Distance(km) Time Diff (sec)
1 10/28/2023 00:51:20 72.74, 159.20 85.65 10/28/2023 00:50:25 72.76, 159.16 85.68 2.98 55
2 10/28/2023 01:42:04 -72.75, -33.51 94.33 10/28/2023 01:41:08 -72.76, -33.53 94.32 0.95 56
3 10/28/2023 02:32:50 72.74, 133.82 85.68 10/28/2023 02:31:47 72.74, 133.78 85.68 1.33 63
4 10/28/2023 03:23:34 -72.75, -58.89 94.30 10/28/2023 03:22:30 -72.74, -58.91 94.31 2.11 64
5 10/28/2023 04:14:20 72.74, 108.43 85.71 10/28/2023 04:13:09 72.72, 108.39 85.69 3.06 71
6 10/28/2023 05:05:04 -72.76, -84.27 94.27 10/28/2023 05:03:51 -72.77, -84.19 94.26 2.90 73
7 10/28/2023 05:55:46 72.54, 83.47 85.52 10/28/2023 05:54:34 72.55, 82.70 85.54 25.70 72
8 10/28/2023 06:46:30 -72.56,-109.24 94.46 10/28/2023 06:45:17 -72.54,-109.99 94.45 24.99 73
9 10/28/2023 07:37:10 72.24, 58.69 85.23 10/28/2023 07:36:01 72.27, 56.81 85.30 63.99 69
10 10/28/2023 08:27:54 -72.26,-134.02 94.75 10/28/2023 08:26:44 -72.27,-135.88 94.69 62.99 70



Historial Predications of SNOs between NPP and METOP-C
